Wetbulb
71.99 71.05 71.24 72.23 71.74 70.67 70.02 70.60 70.56 68.02 67.16 68.72 68.00 68.18 68.54 67.34 66.74 66.40 65.31 64.69 63.58 63.63
72.06 72.06 72.20 72.34 71.31 70.34 69.88 70.29 69.76 67.56 67.31 67.98 68.42 68.68 68.77 67.37 67.61 66.75 64.94 64.56 64.05 62.05
72.24 72.44 72.25 70.96 70.42 69.56 69.00 68.33 67.39 67.88 66.96 67.74 67.86 67.74 67.44 65.20 64.84 65.57 65.35 64.39 63.61 63.68
71.18 70.72 70.42 69.53 68.68 68.58 68.40 67.98 68.25 66.21 65.63 65.19 64.70 64.70 64.26 63.95 63.21 62.05 62.00 62.26 61.20 60.74
69.76 69.97 69.22 68.66 68.32 67.30 66.71 66.09 65.47 64.71 63.20 62.45 62.45 62.78 61.31 59.83 60.44 59.21 58.11 58.26 58.81 58.11
68.67 68.45 66.78 66.31 66.66 65.61 65.20 63.63 62.32 60.88 60.57 60.74 61.44 60.34 59.63 58.73 58.37 59.01 59.22 59.02 58.41 58.36
66.06 65.98 66.82 67.14 65.92 64.72 62.57 61.05 60.16 60.15 58.79 59.99 59.55 58.86 58.85 58.33 59.04 59.06 58.43 58.26 57.99 57.85
66.75 66.82 66.77 65.58 64.56 62.47 61.07 60.03 59.39 58.60 58.53 59.76 58.88 57.64 58.38 58.25 58.50 58.09 57.33 57.89 57.05 57.40
65.92 66.01 65.04 63.97 62.47 61.67 60.40 59.87 58.07 57.11 57.00 57.07 57.03 50.68 50.37 53.81 57.75 57.59 56.77 56.09 56.78 57.07
65.08 64.32 63.51 62.52 62.00 61.05 60.04 59.64 58.42 57.40 57.05 57.27 58.73 48.01 48.03 50.20 57.01 56.29 56.16 56.19 55.99 55.26
62.76 62.71 62.36 62.21 61.45 61.25 60.57 59.07 58.57 58.42 58.08 58.04 57.11 47.44 46.65 47.83 56.06 56.02 56.11 56.12 55.53 54.54
61.43 61.59 61.25 60.17 60.15 59.94 59.20 59.15 58.84 58.03 57.57 57.08 57.06 46.65 45.58 49.70 55.65 55.03 55.23 55.13 54.48 52.93
59.90 59.37 58.83 59.13 58.77 57.60 57.81 57.48 57.61 57.77 57.13 51.18 55.76 46.84 45.13 48.73 54.77 53.85 53.21 54.08 53.46 48.70
58.45 58.09 57.61 57.68 57.40 57.64 57.75 57.38 56.90 55.93 55.85 55.32 53.04 53.36 44.69 44.86 53.65 52.45 51.89 51.68 51.72 52.63
MSLP
1013.77 1014.03 1014.45 1014.79 1015.32 1015.64 1015.50 1015.87 1016.13 1016.56 1016.92 1016.16 1016.33 1016.55 1017.17 1016.69 1017.33 1017.77 1018.08 1018.16 1018.26 1018.15
1013.69 1013.69 1013.91 1014.69 1015.43 1015.72 1015.91 1016.25 1016.38 1016.60 1016.73 1016.16 1016.12 1016.32 1016.40 1016.43 1017.05 1017.65 1017.91 1017.95 1018.02 1018.05
1013.32 1013.58 1013.85 1014.52 1015.06 1015.61 1015.92 1016.16 1016.28 1016.53 1016.35 1015.86 1015.95 1016.34 1016.65 1017.19 1017.43 1017.68 1017.59 1017.59 1017.54 1017.49
1013.34 1013.68 1013.81 1014.15 1014.77 1015.34 1015.65 1015.80 1015.99 1016.13 1016.10 1016.12 1016.44 1016.87 1017.02 1017.17 1017.34 1017.54 1017.53 1017.39 1017.33 1017.23
1013.24 1013.92 1013.80 1014.12 1014.90 1015.22 1015.43 1015.76 1015.93 1016.12 1016.45 1016.54 1016.72 1016.95 1017.00 1017.05 1017.16 1017.44 1017.40 1017.18 1017.19 1016.95
1013.86 1013.94 1014.01 1014.44 1015.10 1015.14 1015.38 1015.89 1016.16 1016.25 1016.36 1016.53 1016.78 1016.91 1017.07 1017.18 1017.28 1017.36 1017.36 1017.36 1017.20 1016.92
1014.01 1013.80 1013.87 1014.71 1015.31 1015.24 1015.45 1015.86 1016.31 1016.56 1016.66 1016.75 1016.93 1017.00 1017.11 1017.22 1017.25 1017.26 1017.16 1017.22 1017.04 1016.80
1013.50 1013.81 1014.41 1014.74 1015.26 1015.55 1015.80 1016.16 1016.37 1016.57 1016.70 1016.71 1016.89 1017.06 1017.44 1017.44 1017.16 1017.14 1016.95 1016.83 1016.51 1016.55
1013.67 1014.39 1014.66 1014.78 1015.25 1015.75 1016.03 1016.32 1016.53 1016.63 1016.72 1016.84 1017.12 1017.56 1017.53 1017.37 1017.01 1016.83 1016.49 1016.32 1016.43 1016.54
1013.87 1014.40 1014.84 1014.98 1015.31 1015.78 1016.12 1016.38 1016.38 1016.51 1016.70 1016.87 1017.10 1017.51 1017.35 1017.17 1016.62 1016.48 1016.24 1016.18 1016.29 1016.28
1014.16 1014.53 1015.10 1015.12 1015.41 1015.70 1015.90 1016.16 1016.36 1016.48 1016.52 1016.61 1016.92 1017.07 1017.15 1016.96 1016.64 1016.39 1016.18 1016.25 1016.40 1016.43
1014.38 1014.75 1015.08 1015.08 1015.28 1015.63 1015.94 1016.07 1016.25 1016.36 1016.37 1016.52 1016.78 1017.13 1017.25 1017.07 1016.49 1016.19 1016.24 1016.27 1016.25 1016.35
1014.55 1014.85 1015.05 1015.14 1015.40 1015.88 1016.07 1016.12 1016.19 1016.38 1016.51 1016.87 1016.98 1017.46 1017.54 1017.21 1016.41 1016.23 1016.27 1016.05 1015.95 1015.94
1015.03 1015.31 1015.45 1015.51 1015.70 1016.04 1016.12 1016.19 1016.43 1016.49 1016.65 1016.71 1017.19 1017.19 1017.54 1017.26 1016.63 1016.55 1016.16 1015.64 1015.30 1015.15
Wind_Speed
11 8 8 7 4 4 3 3 4 3 3 3 3 4 4 4 1 2 4 6 5 5
10 9 7 6 6 5 3 2 2 1 3 5 5 5 5 5 2 1 2 4 4 4
8 6 5 6 6 5 6 5 4 4 4 8 8 6 5 3 1 3 2 3 4 4
6 6 6 6 6 6 5 4 6 7 8 8 7 5 4 4 3 3 3 3 4 6
8 7 7 7 7 6 9 9 8 8 6 5 5 5 5 4 3 4 5 5 6 7
8 8 8 8 8 9 9 8 7 6 5 4 3 3 2 1 3 5 5 6 8 9
8 8 9 9 9 9 8 8 6 4 3 3 4 4 3 4 5 5 6 6 6 7
8 9 9 10 9 8 7 5 5 4 4 4 4 2 3 5 6 6 7 7 7 7
9 9 10 10 9 7 6 5 4 4 3 3 3 6 2 5 4 5 6 8 9 9
10 9 8 8 8 6 5 4 4 4 4 5 3 4 3 3 6 7 8 8 7 8
7 8 7 7 6 4 2 2 3 4 3 4 2 6 7 7 7 7 7 6 6 6
6 6 5 4 2 1 3 4 4 4 4 4 5 7 6 7 5 6 7 6 5 5
4 2 1 1 1 2 4 4 4 5 4 4 6 6 5 6 5 6 7 7 4 7
4 3 3 4 4 4 4 4 4 5 4 5 3 4 3 4 5 6 7 5 5 6
Wind_Direction
214 213 215 223 203 211 191 173 143 174 215 123 115 125 183 110 128 251 261 272 272 271
203 204 199 186 167 179 166 142 122 217 205 127 109 109 96 80 75 257 263 280 287 290
187 187 171 171 152 147 136 144 152 154 115 85 76 74 72 74 80 274 295 294 298 299
141 142 132 128 127 131 141 146 123 100 91 94 93 92 97 77 45 352 337 331 315 314
117 135 123 117 128 133 115 110 111 107 104 100 94 76 69 58 25 316 311 318 308 303
139 133 125 127 130 126 120 114 109 105 84 74 82 113 116 293 273 279 293 305 301 296
146 134 127 137 145 132 126 124 115 99 112 169 184 196 225 261 277 287 292 296 297 291
135 136 144 140 141 136 139 136 136 155 194 204 221 233 326 304 290 278 291 300 316 310
138 150 150 145 145 152 152 157 164 193 232 274 275 67 288 269 280 297 316 317 311 307
132 139 149 153 155 163 164 176 209 244 254 263 289 56 77 26 341 320 318 316 318 314
137 146 159 165 168 155 167 244 262 262 280 303 62 43 11 335 314 313 324 327 319 311
139 148 171 151 124 28 296 277 286 320 345 342 358 34 9 332 329 341 323 308 311 317
122 118 77 53 356 1 325 324 331 346 23 28 333 49 20 348 333 328 315 301 279 207
58 41 23 24 20 348 333 350 353 348 335 341 9 26 63 14 329 318 305 292 303 310